Content
SEND FEEDBACK

Daily
Averages
Monthly
Summary
United States of America

SUNDANCE, WYOMING


Home > North America > United States > Wyoming
Elevation: 4908 feet     Latitude: 44 24N     Longitude: 104 21W

WEATHER
 
SELECT A DAY
Number of Records: 227,931;   Date Range: 1/2/95 - 9/20/14
 
SHARE

PRINT THIS DATA

[ ← Previous Day ]
WEATHER ALMANAC - MARCH 1, 2013
[ Next Day → ]
[ °C ]   °F
Weather ElementAverageHighLow
Temperature35.3 °F42.8 °F (3:15 pm)26.6 °F (12:55 am)
Dewpoint21.9 °F32 °F (10:35 pm)14 °F (10:55 am)
Humidity60 %80 % (12:35 am)36 % (1:35 pm)
Barometer30.21 in30.26 in (8:55 am)30.14 in (11:35 pm)
Wind Speed8.6 mph12.7 mph (2:55 am)
Wind Gust17.3 mph (4:15 am)
Weather ElementAverage
Visibility10 mi
Wind DirectionW (271 °)

Weather ElementTotal
Precipitation---
Heating Degree Days30.3 (Base 65)
Averaged from 67 records on March 1, 2013
WEATHER CONDITIONS BREAKOUT
WIND DIRECTION BREAKOUT
WEATHER BY HOUR - MARCH 1, 2013
[ °C ]   °F
Local TimeTemperatureDewpointHumidityBarometerVisibilityWind DirectionWind SpeedGust SpeedPrecipitationEventsConditions
12:35 AM28.4 °F23.0 °F80 %30.20 in10.0 miWest (260°)5.8 mphScattered Clouds
12:55 AM26.6 °F21.2 °F80 %30.19 in10.0 miCalmMostly Cloudy
1:15 AM28.4 °F23.0 °F80 %30.19 in10.0 miWest (270°)3.5 mphOvercast
1:35 AM28.4 °F23.0 °F80 %30.19 in10.0 miWest (280°)5.8 mphMostly Cloudy
2:15 AM28.4 °F23.0 °F80 %30.19 in10.0 miWest (270°)10.4 mphScattered Clouds
2:35 AM30.2 °F23.0 °F75 %30.20 in10.0 miWest (280°)11.5 mphPartly Cloudy
2:55 AM30.2 °F23.0 °F75 %30.20 in10.0 miWest (270°)12.7 mphClear
3:35 AM30.2 °F23.0 °F75 %30.20 in10.0 miWest (270°)12.7 mphClear
3:55 AM28.4 °F21.2 °F74 %30.20 in10.0 miWest (270°)12.7 mphClear
4:15 AM28.4 °F21.2 °F74 %30.21 in10.0 miWest (270°)11.5 mph17.3 mphClear
4:35 AM28.4 °F21.2 °F74 %30.21 in10.0 miWest (270°)9.2 mphClear
4:55 AM28.4 °F19.4 °F69 %30.21 in10.0 miWest (260°)12.7 mph16.1 mphClear
5:15 AM28.4 °F19.4 °F69 %30.21 in10.0 miWest (270°)9.2 mphClear
5:35 AM28.4 °F19.4 °F69 %30.21 in10.0 miWest (260°)10.4 mphClear
5:55 AM26.6 °F19.4 °F74 %30.21 in10.0 miWest (270°)9.2 mphClear
6:15 AM26.6 °F19.4 °F74 %30.21 in10.0 miWest (260°)11.5 mphClear
6:35 AM26.6 °F17.6 °F69 %30.23 in10.0 miWest (260°)10.4 mphClear
6:55 AM26.6 °F17.6 °F69 %30.24 in10.0 miWest (270°)11.5 mphClear
7:15 AM26.6 °F17.6 °F69 %30.24 in10.0 miWest (260°)10.4 mphClear
7:35 AM26.6 °F17.6 °F69 %30.24 in10.0 miWest (260°)9.2 mphClear
7:55 AM26.6 °F17.6 °F69 %30.24 in10.0 miWest (260°)9.2 mphClear
8:15 AM26.6 °F17.6 °F69 %30.25 in10.0 miWest (260°)9.2 mphClear
8:35 AM28.4 °F17.6 °F64 %30.25 in10.0 miWest (260°)6.9 mphClear
8:55 AM30.2 °F17.6 °F60 %30.26 in10.0 miWest (260°)9.2 mphClear
9:15 AM32.0 °F17.6 °F55 %30.26 in10.0 miWSW (250°)6.9 mphClear
9:35 AM32.0 °F17.6 °F55 %30.26 in10.0 miWest (260°)6.9 mphClear
9:55 AM32.0 °F17.6 °F55 %30.26 in10.0 miWest (270°)8.1 mphClear
10:15 AM35.6 °F17.6 °F48 %30.26 in10.0 miWest (280°)8.1 mphClear
10:35 AM35.6 °F15.8 °F44 %30.26 in10.0 miNW (310°)9.2 mphClear
10:55 AM35.6 °F14.0 °F41 %30.25 in10.0 miWest (270°)8.1 mphClear
11:15 AM37.4 °F14.0 °F38 %30.25 in10.0 miNW (310°)9.2 mphClear
11:35 AM37.4 °F15.8 °F41 %30.24 in10.0 miWNW (290°)9.2 mphClear
11:55 AM37.4 °F15.8 °F41 %30.24 in10.0 miWNW (300°)11.5 mphClear
12:15 PM37.4 °F14.0 °F38 %30.24 in10.0 miWNW (300°)8.1 mph16.1 mphClear
12:35 PM39.2 °F15.8 °F39 %30.23 in10.0 miWNW (300°)12.7 mph17.3 mphClear
12:55 PM39.2 °F15.8 °F39 %30.23 in10.0 miNW (320°)9.2 mphPartly Cloudy
1:15 PM39.2 °F15.8 °F39 %30.22 in10.0 miWNW (300°)10.4 mphClear
1:35 PM41.0 °F15.8 °F36 %30.22 in10.0 miWNW (290°)11.5 mphClear
1:55 PM41.0 °F17.6 °F39 %30.21 in10.0 miWest (270°)10.4 mphClear
2:15 PM39.2 °F17.6 °F42 %30.20 in10.0 miWest (270°)8.1 mphClear
2:35 PM41.0 °F17.6 °F39 %30.20 in10.0 miWest (280°)11.5 mphPartly Cloudy
2:55 PM41.0 °F17.6 °F39 %30.19 in10.0 miWNW (300°)10.4 mphScattered Clouds
3:15 PM42.8 °F17.6 °F36 %30.19 in10.0 miWNW (290°)8.1 mphScattered Clouds
3:35 PM41.0 °F19.4 °F42 %30.19 in10.0 miWNW (290°)8.1 mphScattered Clouds
3:55 PM41.0 °F23.0 °F49 %30.20 in10.0 miWNW (300°)8.1 mphPartly Cloudy
4:15 PM41.0 °F21.2 °F45 %30.19 in10.0 miWest (280°)8.1 mphPartly Cloudy
4:35 PM41.0 °F24.8 °F53 %30.19 in10.0 miWest (260°)12.7 mph16.1 mphMostly Cloudy
4:55 PM41.0 °F26.6 °F57 %30.18 in10.0 miWest (260°)9.2 mphOvercast
5:35 PM41.0 °F28.4 °F61 %30.19 in10.0 miWest (280°)9.2 mphMostly Cloudy
5:55 PM41.0 °F28.4 °F61 %30.19 in10.0 miWest (280°)8.1 mphOvercast
6:15 PM39.2 °F28.4 °F65 %30.19 in10.0 miWest (270°)5.8 mphOvercast
6:35 PM39.2 °F28.4 °F65 %30.19 in10.0 miWest (270°)5.8 mphOvercast
6:55 PM39.2 °F28.4 °F65 %30.19 in10.0 miWest (280°)5.8 mphOvercast
7:15 PM39.2 °F28.4 °F65 %30.19 in10.0 miWNW (300°)4.6 mphOvercast
7:35 PM39.2 °F28.4 °F65 %30.19 in10.0 miWest (270°)3.5 mphOvercast
7:55 PM39.2 °F28.4 °F65 %30.17 in10.0 miWest (260°)4.6 mphOvercast
8:15 PM41.0 °F28.4 °F61 %30.17 in10.0 miWest (270°)8.1 mphOvercast
8:35 PM41.0 °F28.4 °F61 %30.17 in10.0 miWest (280°)6.9 mphOvercast
8:55 PM41.0 °F28.4 °F61 %30.17 in10.0 miWNW (300°)4.6 mphOvercast
9:15 PM41.0 °F28.4 °F61 %30.17 in10.0 miWNW (300°)4.6 mphOvercast
9:35 PM41.0 °F28.4 °F61 %30.17 in10.0 miWest (270°)4.6 mphOvercast
9:55 PM42.8 °F30.2 °F61 %30.18 in10.0 miWest (260°)11.5 mphOvercast
10:35 PM41.0 °F32.0 °F70 %30.16 in10.0 miSW (230°)11.5 mphMostly Cloudy
10:55 PM41.0 °F32.0 °F70 %30.15 in10.0 miSW (230°)11.5 mphMostly Cloudy
11:15 PM41.0 °F32.0 °F70 %30.15 in10.0 miWest (270°)4.6 mphOvercast
11:35 PM41.0 °F32.0 °F70 %30.14 in10.0 miWest (270°)8.1 mphOvercast
11:55 PM41.0 °F32.0 °F70 %30.14 in10.0 miWNW (300°)6.9 mphOvercast
Hourly data recorded from KSPF, located miles away from Sundance, Wyoming







STORIES FROM OUR PARTNERS